Date,TemperatureHighF,TemperatureAvgF,TemperatureLowF,DewpointHighF,DewpointAvgF,DewpointLowF,HumidityHigh,HumidityAvg,HumidityLow,PressureMaxIn,PressureMinIn,WindSpeedMaxMPH,WindSpeedAvgMPH,GustSpeedMaxMPH,PrecipitationSumIn
2013-8-1,83,74,69,74,70,66,95,90,73,29.98,29.76,2,0,5,0.02
2013-8-2,87,76,68,71,68,65,95,79,50,29.91,29.80,1,0,5,0.03
2013-8-3,79,72,68,70,66,64,91,82,67,29.93,29.86,0,0,6,0.00
2013-8-4,85,73,63,66,60,52,92,66,38,29.97,29.85,1,0,8,0.00
2013-8-5,82,71,60,62,58,52,87,66,39,30.06,29.97,3,0,10,0.10
2013-8-6,75,71,66,67,65,61,89,82,73,30.05,29.97,1,0,7,0.01
2013-8-7,82,76,71,72,70,67,90,83,71,30.04,29.96,2,0,5,0.00
2013-8-8,88,80,74,76,73,70,88,79,63,30.00,29.94,1,0,5,0.00
2013-8-9,93,82,76,77,74,73,93,79,53,29.94,29.80,3,0,11,0.01
2013-8-10,84,77,70,74,68,63,92,76,54,30.03,29.89,2,0,6,0.00
2013-8-11,83,75,70,71,68,65,92,80,60,30.07,29.97,2,0,2,0.00
2013-8-12,90,79,71,74,71,68,95,78,56,29.99,29.88,4,0,8,0.00
2013-8-13,88,79,71,74,71,67,93,77,55,29.87,29.70,2,0,10,0.00
2013-8-14,71,69,65,70,66,62,94,93,89,29.79,29.74,0,0,1,0.00
2013-8-15,78,68,58,58,54,48,88,65,37,30.14,30.05,2,0,7,0.00
2013-8-16,83,69,56,61,56,49,93,68,31,30.16,30.09,1,0,5,0.00
2013-8-17,84,72,60,66,60,56,95,70,41,30.23,30.15,2,0,8,0.00
2013-8-18,75,69,64,66,63,60,93,81,65,30.18,30.11,1,0,5,0.00
2013-8-19,76,69,63,67,64,60,95,84,69,30.14,30.03,1,0,6,0.00
2013-8-20,86,75,64,72,68,62,96,80,54,30.12,30.04,2,0,5,0.00
2013-8-21,90,78,68,75,71,67,96,81,57,30.16,30.03,1,0,5,0.00
2013-8-22,89,79,71,74,70,66,95,74,47,30.05,29.88,1,0,5,0.00
2013-8-23,79,73,65,71,65,57,88,76,59,30.06,29.88,0,0,6,0.00
2013-8-24,85,73,62,67,61,56,92,68,43,30.29,30.06,1,0,5,0.00
2013-8-25,83,72,62,65,58,43,94,66,27,30.37,30.23,3,0,6,0.00
2013-8-26,88,75,62,67,61,56,84,65,40,30.26,29.96,2,0,5,0.00
2013-8-27,94,79,72,72,68,64,88,71,45,29.96,29.83,2,0,8,0.00
2013-8-28,85,76,72,74,71,69,94,85,66,29.86,29.78,1,0,5,0.01
2013-8-29,86,76,72,72,70,65,95,81,55,29.98,29.79,1,0,6,0.04
2013-8-30,86,76,67,72,68,64,92,78,59,30.00,29.86,1,0,7,0.00
2013-8-31,91,80,72,76,71,68,90,75,54,29.88,29.76,2,0,7,0.00